Tracking 28518 objects as of 2-Mar-2024
HD Live streaming from Space Station
objects crossing your sky now

STARLINK-5635

Track STARLINK-5635 now!
10-day predictions
STARLINK-5635 is classified as:


NORAD ID: 55367
Int'l Code: 2023-013AN
Perigee: 565.3 km
Apogee: 567.2 km
Inclination: 43.0 °
Period: 95.8 minutes
Semi major axis: 6937 km
RCS: Unknown
Launch date: January 26, 2023
Source: United States (US)
Launch site: AIR FORCE EASTERN TEST RANGE (AFETR)
Your satellite tracking list
Your tracking list is empty




NASA's NSSDC Master Catalog

Two Line Element Set (TLE):
1 55367U 23013AN  24061.49847110  .00000931  00000-0  83993-4 0  9991
2 55367  43.0040 338.6677 0001362 273.1741  86.8946 15.02535698 60816
Source of the keplerian elements: AFSPC